Location: Unspecified
(0.0000°N, 0.0000°E)
Time: 04:40:50
(UTC+00:00)

CORVUS BC2 - Visible Passes

Search period start: 14 February 2026 00:00
Search period end: 24 February 2026 00:00
Orbit: 541 x 560 km, 97.4° (Epoch: 11 February)

Date Brightness Start Highest point End Pass type
(mag) Time Alt. Az. Time Alt. Az. Time Alt. Az.
14 Feb ? 04:41:49 10° S 04:44:20 33° SSW 04:44:20 33° SSW visible
15 Feb ? 04:37:33 10° S 04:40:01 34° SSW 04:40:01 34° SSW visible
16 Feb ? 04:33:18 10° S 04:35:42 34° S 04:35:42 34° S visible
17 Feb ? 04:29:04 10° S 04:31:23 34° S 04:31:23 34° S visible
18 Feb ? 04:24:50 10° S 04:27:02 32° S 04:27:02 32° S visible
19 Feb ? 04:20:36 10° SSE 04:22:41 30° SSE 04:22:41 30° SSE visible
20 Feb ? 04:16:24 10° SSE 04:18:20 27° SSE 04:18:20 27° SSE visible
21 Feb ? 04:12:10 10° SSE 04:13:57 25° SSE 04:13:57 25° SSE visible
22 Feb ? 04:07:58 10° SSE 04:09:35 22° SE 04:09:35 22° SE visible
23 Feb ? 04:03:46 10° SSE 04:05:11 20° SE 04:05:11 20° SE visible
